Time,TemperatureF,DewpointF,PressureIn,WindDirection,WindDirectionDegrees,WindSpeedMPH,WindSpeedGustMPH,Humidity,HourlyPrecipIn,Conditions,Clouds,dailyrainin,SoftwareType,DateUTC
2013-12-16 00:03:00,47.5,45.3,30.34,SW,225,0.0,0.0,92,0.00,,,0.00,WUHU21623XXSP,2013-12-16 08:03:00,
2013-12-16 00:09:00,47.5,45.3,30.34,SW,225,0.0,0.0,92,0.00,,,0.00,WUHU21623XXSP,2013-12-16 08:09:00,
2013-12-16 00:14:00,47.5,45.3,30.33,SW,225,0.0,0.0,92,0.00,,,0.00,WUHU21623XXSP,2013-12-16 08:14:00,
2013-12-16 00:19:00,47.5,45.3,30.33,SW,225,0.0,0.0,92,0.00,,,0.00,WUHU21623XXSP,2013-12-16 08:19:00,
2013-12-16 00:24:00,47.5,45.3,30.33,SW,225,0.0,0.0,92,0.00,,,0.00,WUHU21623XXSP,2013-12-16 08:24:00,
2013-12-16 00:29:00,47.3,45.1,30.33,SW,225,0.0,0.0,92,0.00,,,0.00,WUHU21623XXSP,2013-12-16 08:29:00,
2013-12-16 00:35:00,47.3,45.1,30.33,SE,135,0.0,0.0,92,0.00,,,0.00,WUHU21623XXSP,2013-12-16 08:35:00,
2013-12-16 00:40:00,47.3,45.1,30.33,ESE,112,0.0,0.0,92,0.00,,,0.00,WUHU21623XXSP,2013-12-16 08:40:00,
2013-12-16 00:45:00,47.3,45.1,30.33,SE,135,0.0,0.0,92,0.00,,,0.00,WUHU21623XXSP,2013-12-16 08:45:00,
2013-12-16 00:50:00,47.1,45.0,30.33,SE,135,0.0,0.0,92,0.00,,,0.00,WUHU21623XXSP,2013-12-16 08:50:00,
2013-12-16 00:56:00,47.1,45.0,30.33,SE,135,0.0,0.0,92,0.00,,,0.00,WUHU21623XXSP,2013-12-16 08:56:00,
2013-12-16 01:01:00,47.1,45.0,30.33,SE,135,0.0,0.0,92,0.00,,,0.00,WUHU21623XXSP,2013-12-16 09:01:00,
2013-12-16 01:06:00,47.1,45.0,30.33,SE,135,0.0,0.0,92,0.00,,,0.00,WUHU21623XXSP,2013-12-16 09:06:00,
2013-12-16 01:11:00,47.1,45.0,30.33,SE,135,0.0,0.0,92,0.00,,,0.00,WUHU21623XXSP,2013-12-16 09:11:00,
2013-12-16 01:17:00,47.1,45.0,30.34,SE,135,0.0,0.0,92,0.00,,,0.00,WUHU21623XXSP,2013-12-16 09:17:00,
2013-12-16 01:22:00,47.1,45.0,30.33,SE,135,0.0,0.0,92,0.00,,,0.00,WUHU21623XXSP,2013-12-16 09:22:00,
2013-12-16 01:27:00,47.1,45.0,30.34,SE,135,0.0,0.0,92,0.00,,,0.00,WUHU21623XXSP,2013-12-16 09:27:00,
2013-12-16 01:32:00,47.1,45.0,30.34,SE,135,0.0,0.0,92,0.00,,,0.00,WUHU21623XXSP,2013-12-16 09:32:00,
2013-12-16 01:38:00,47.1,45.0,30.35,SE,135,0.0,0.0,92,0.00,,,0.00,WUHU21623XXSP,2013-12-16 09:38:00,
2013-12-16 01:43:00,46.9,44.8,30.35,SE,135,0.0,0.0,92,0.00,,,0.00,WUHU21623XXSP,2013-12-16 09:43:00,
2013-12-16 01:48:00,46.9,44.8,30.34,SE,135,0.0,0.0,92,0.00,,,0.00,WUHU21623XXSP,2013-12-16 09:48:00,
2013-12-16 01:53:00,46.8,44.6,30.34,SE,135,0.0,0.0,92,0.00,,,0.00,WUHU21623XXSP,2013-12-16 09:53:00,
2013-12-16 01:59:00,46.6,44.4,30.35,SE,135,0.0,0.0,92,0.00,,,0.00,WUHU21623XXSP,2013-12-16 09:59:00,
2013-12-16 02:04:00,46.6,44.4,30.35,SE,135,0.0,0.0,92,0.00,,,0.00,WUHU21623XXSP,2013-12-16 10:04:00,
2013-12-16 02:09:00,46.2,44.1,30.34,SE,135,0.0,0.0,92,0.00,,,0.00,WUHU21623XXSP,2013-12-16 10:09:00,
2013-12-16 02:14:00,46.2,44.1,30.35,SE,135,0.0,0.0,92,0.00,,,0.00,WUHU21623XXSP,2013-12-16 10:14:00,
2013-12-16 02:19:00,46.0,43.6,30.35,SE,135,0.0,0.0,91,0.00,,,0.00,WUHU21623XXSP,2013-12-16 10:19:00,
2013-12-16 02:25:00,45.7,43.3,30.35,SE,135,0.0,0.0,91,0.00,,,0.00,WUHU21623XXSP,2013-12-16 10:25:00,
2013-12-16 02:30:00,45.5,43.1,30.35,SE,135,0.0,0.0,91,0.00,,,0.00,WUHU21623XXSP,2013-12-16 10:30:00,
2013-12-16 02:35:00,45.3,42.9,30.35,SE,135,0.0,0.0,91,0.00,,,0.00,WUHU21623XXSP,2013-12-16 10:35:00,
2013-12-16 02:40:00,45.0,42.5,30.35,SE,135,0.0,0.0,91,0.00,,,0.00,WUHU21623XXSP,2013-12-16 10:40:00,
2013-12-16 02:46:00,45.0,42.5,30.35,SE,135,0.0,0.0,91,0.00,,,0.00,WUHU21623XXSP,2013-12-16 10:46:00,
2013-12-16 02:51:00,44.8,42.4,30.35,SE,135,0.0,0.0,91,0.00,,,0.00,WUHU21623XXSP,2013-12-16 10:51:00,
2013-12-16 02:56:00,44.8,42.4,30.35,SE,135,0.0,0.0,91,0.00,,,0.00,WUHU21623XXSP,2013-12-16 10:56:00,
2013-12-16 03:01:00,44.6,42.2,30.35,SE,135,0.0,0.0,91,0.00,,,0.00,WUHU21623XXSP,2013-12-16 11:01:00,
2013-12-16 03:07:00,44.6,42.2,30.35,SE,135,0.0,0.0,91,0.00,,,0.00,WUHU21623XXSP,2013-12-16 11:07:00,
2013-12-16 03:12:00,44.6,42.2,30.35,SE,135,0.0,0.0,91,0.00,,,0.00,WUHU21623XXSP,2013-12-16 11:12:00,
2013-12-16 03:17:00,44.6,42.2,30.35,SE,135,0.0,0.0,91,0.00,,,0.00,WUHU21623XXSP,2013-12-16 11:17:00,
2013-12-16 03:22:00,44.4,42.0,30.35,SE,135,0.0,0.0,91,0.00,,,0.00,WUHU21623XXSP,2013-12-16 11:22:00,
2013-12-16 03:28:00,44.4,42.3,30.36,SE,135,0.0,0.0,92,0.00,,,0.00,WUHU21623XXSP,2013-12-16 11:28:00,
2013-12-16 03:33:00,44.4,42.3,30.36,SE,135,0.0,0.0,92,0.00,,,0.00,WUHU21623XXSP,2013-12-16 11:33:00,
2013-12-16 03:38:00,44.4,42.3,30.36,NE,45,0.0,0.0,92,0.00,,,0.00,WUHU21623XXSP,2013-12-16 11:38:00,
2013-12-16 03:43:00,44.4,42.3,30.37,North,0,0.0,0.0,92,0.00,,,0.00,WUHU21623XXSP,2013-12-16 11:43:00,
2013-12-16 03:48:00,44.4,42.3,30.36,North,0,0.0,0.0,92,0.00,,,0.00,WUHU21623XXSP,2013-12-16 11:48:00,
2013-12-16 03:54:00,44.4,42.3,30.36,North,0,0.0,0.0,92,0.00,,,0.00,WUHU21623XXSP,2013-12-16 11:54:00,
2013-12-16 03:59:00,44.4,42.3,30.36,North,0,0.0,0.0,92,0.00,,,0.00,WUHU21623XXSP,2013-12-16 11:59:00,
2013-12-16 04:04:00,44.4,42.3,30.38,North,0,0.0,0.0,92,0.00,,,0.00,WUHU21623XXSP,2013-12-16 12:04:00,
2013-12-16 04:09:00,44.6,42.4,30.36,North,0,0.0,0.0,92,0.00,,,0.00,WUHU21623XXSP,2013-12-16 12:09:00,
2013-12-16 04:15:00,44.8,42.9,30.36,North,0,0.0,0.0,93,0.00,,,0.00,WUHU21623XXSP,2013-12-16 12:15:00,
2013-12-16 04:20:00,44.8,42.9,30.36,North,0,0.0,0.0,93,0.00,,,0.00,WUHU21623XXSP,2013-12-16 12:20:00,
2013-12-16 04:25:00,44.6,42.7,30.39,North,0,0.0,0.0,93,0.00,,,0.00,WUHU21623XXSP,2013-12-16 12:25:00,
2013-12-16 04:30:00,44.6,42.7,30.41,North,0,0.0,0.0,93,0.00,,,0.00,WUHU21623XXSP,2013-12-16 12:30:00,
2013-12-16 04:36:00,44.6,42.7,30.45,North,0,0.0,0.0,93,0.00,,,0.00,WUHU21623XXSP,2013-12-16 12:36:00,
2013-12-16 04:41:00,44.8,42.9,30.44,North,0,0.0,0.0,93,0.00,,,0.00,WUHU21623XXSP,2013-12-16 12:41:00,
2013-12-16 04:46:00,44.8,42.9,30.38,North,0,0.0,0.0,93,0.00,,,0.00,WUHU21623XXSP,2013-12-16 12:46:00,
2013-12-16 04:51:00,45.0,43.1,30.35,North,0,0.0,0.0,93,0.00,,,0.00,WUHU21623XXSP,2013-12-16 12:51:00,
2013-12-16 04:56:00,44.8,42.9,30.35,North,0,0.0,0.0,93,0.00,,,0.00,WUHU21623XXSP,2013-12-16 12:56:00,
2013-12-16 05:02:00,44.8,42.9,30.35,North,0,0.0,0.0,93,0.00,,,0.00,WUHU21623XXSP,2013-12-16 13:02:00,
2013-12-16 05:07:00,44.8,42.6,30.35,North,0,0.0,0.0,92,0.00,,,0.00,WUHU21623XXSP,2013-12-16 13:07:00,
2013-12-16 05:12:00,44.4,42.3,30.35,North,0,0.0,0.0,92,0.00,,,0.00,WUHU21623XXSP,2013-12-16 13:12:00,
2013-12-16 05:17:00,44.4,42.3,30.34,North,0,0.0,0.0,92,0.00,,,0.00,WUHU21623XXSP,2013-12-16 13:17:00,
2013-12-16 05:23:00,44.4,42.3,30.34,North,0,0.0,0.0,92,0.00,,,0.00,WUHU21623XXSP,2013-12-16 13:23:00,
2013-12-16 05:28:00,44.4,42.3,30.35,North,0,0.0,0.0,92,0.00,,,0.00,WUHU21623XXSP,2013-12-16 13:28:00,
2013-12-16 05:33:00,44.1,41.9,30.35,North,0,0.0,0.0,92,0.00,,,0.00,WUHU21623XXSP,2013-12-16 13:33:00,
2013-12-16 05:38:00,44.1,41.9,30.35,North,0,0.0,0.0,92,0.00,,,0.00,WUHU21623XXSP,2013-12-16 13:38:00,
2013-12-16 05:44:00,44.1,41.9,30.35,North,0,0.0,0.0,92,0.00,,,0.00,WUHU21623XXSP,2013-12-16 13:44:00,
2013-12-16 05:49:00,44.2,42.1,30.35,North,0,0.0,0.0,92,0.00,,,0.00,WUHU21623XXSP,2013-12-16 13:49:00,
2013-12-16 05:54:00,44.1,41.9,30.34,North,0,0.0,0.0,92,0.00,,,0.00,WUHU21623XXSP,2013-12-16 13:54:00,
2013-12-16 05:59:00,43.9,41.7,30.34,North,0,0.0,0.0,92,0.00,,,0.00,WUHU21623XXSP,2013-12-16 13:59:00,
2013-12-16 06:04:00,43.9,41.7,30.34,North,0,0.0,0.0,92,0.00,,,0.00,WUHU21623XXSP,2013-12-16 14:04:00,
2013-12-16 06:10:00,43.7,41.5,30.35,North,0,0.0,0.0,92,0.00,,,0.00,WUHU21623XXSP,2013-12-16 14:10:00,
2013-12-16 06:15:00,43.5,41.4,30.34,North,0,0.0,0.0,92,0.00,,,0.00,WUHU21623XXSP,2013-12-16 14:15:00,
2013-12-16 06:20:00,43.0,40.5,30.35,North,0,0.0,0.0,91,0.00,,,0.00,WUHU21623XXSP,2013-12-16 14:20:00,
2013-12-16 06:25:00,43.0,40.8,30.35,North,0,0.0,0.0,92,0.00,,,0.00,WUHU21623XXSP,2013-12-16 14:25:00,
2013-12-16 06:31:00,42.6,40.2,30.35,North,0,0.0,0.0,91,0.00,,,0.00,WUHU21623XXSP,2013-12-16 14:31:00,
2013-12-16 06:36:00,42.4,40.0,30.35,North,0,0.0,0.0,91,0.00,,,0.00,WUHU21623XXSP,2013-12-16 14:36:00,
2013-12-16 06:41:00,42.4,40.0,30.34,North,0,0.0,0.0,91,0.00,,,0.00,WUHU21623XXSP,2013-12-16 14:41:00,
2013-12-16 06:46:00,42.1,39.6,30.35,North,0,0.0,0.0,91,0.00,,,0.00,WUHU21623XXSP,2013-12-16 14:46:00,
2013-12-16 06:52:00,41.9,39.5,30.34,North,0,0.0,0.0,91,0.00,,,0.00,WUHU21623XXSP,2013-12-16 14:52:00,
2013-12-16 06:57:00,41.7,39.3,30.34,North,0,0.0,0.0,91,0.00,,,0.00,WUHU21623XXSP,2013-12-16 14:57:00,
2013-12-16 07:02:00,41.7,39.3,30.34,North,0,0.0,0.0,91,0.00,,,0.00,WUHU21623XXSP,2013-12-16 15:02:00,
2013-12-16 07:07:00,41.5,39.1,30.34,North,0,0.0,0.0,91,0.00,,,0.00,WUHU21623XXSP,2013-12-16 15:07:00,
2013-12-16 07:12:00,41.4,39.2,30.44,North,0,0.0,0.0,92,0.00,,,0.00,WUHU21623XXSP,2013-12-16 15:12:00,
2013-12-16 07:18:00,41.4,39.2,30.37,North,0,0.0,0.0,92,0.00,,,0.00,WUHU21623XXSP,2013-12-16 15:18:00,
2013-12-16 07:23:00,41.2,39.0,30.34,North,0,0.0,0.0,92,0.00,,,0.00,WUHU21623XXSP,2013-12-16 15:23:00,
2013-12-16 07:28:00,41.4,39.2,30.35,North,0,0.0,0.0,92,0.00,,,0.00,WUHU21623XXSP,2013-12-16 15:28:00,
2013-12-16 07:33:00,41.5,39.4,30.35,North,0,0.0,0.0,92,0.00,,,0.00,WUHU21623XXSP,2013-12-16 15:33:00,
2013-12-16 07:39:00,41.5,39.4,30.35,North,0,0.0,0.0,92,0.00,,,0.00,WUHU21623XXSP,2013-12-16 15:39:00,
2013-12-16 07:44:00,41.7,39.6,30.35,North,0,0.0,0.0,92,0.00,,,0.00,WUHU21623XXSP,2013-12-16 15:44:00,
2013-12-16 07:49:00,41.9,39.7,30.35,North,0,0.0,0.0,92,0.00,,,0.00,WUHU21623XXSP,2013-12-16 15:49:00,
2013-12-16 07:54:00,41.9,39.7,30.36,North,0,0.0,0.0,92,0.00,,,0.00,WUHU21623XXSP,2013-12-16 15:54:00,
2013-12-16 08:00:00,42.1,39.9,30.36,North,0,0.0,0.0,92,0.00,,,0.00,WUHU21623XXSP,2013-12-16 16:00:00,
2013-12-16 08:05:00,42.1,39.9,30.37,North,0,0.0,0.0,92,0.00,,,0.00,WUHU21623XXSP,2013-12-16 16:05:00,
2013-12-16 08:10:00,41.9,39.7,30.37,North,0,0.0,0.0,92,0.00,,,0.00,WUHU21623XXSP,2013-12-16 16:10:00,
2013-12-16 08:15:00,41.7,39.6,30.37,North,0,0.0,0.0,92,0.00,,,0.00,WUHU21623XXSP,2013-12-16 16:15:00,
2013-12-16 08:20:00,41.7,39.6,30.37,North,0,0.0,0.0,92,0.00,,,0.00,WUHU21623XXSP,2013-12-16 16:20:00,
2013-12-16 08:26:00,41.7,39.6,30.38,North,0,0.0,0.0,92,0.00,,,0.00,WUHU21623XXSP,2013-12-16 16:26:00,
2013-12-16 08:31:00,41.9,39.7,30.38,North,0,0.0,0.0,92,0.00,,,0.00,WUHU21623XXSP,2013-12-16 16:31:00,
2013-12-16 08:36:00,41.9,39.7,30.38,North,0,0.0,0.0,92,0.00,,,0.00,WUHU21623XXSP,2013-12-16 16:36:00,
2013-12-16 08:41:00,41.9,39.7,30.38,North,0,0.0,0.0,92,0.00,,,0.00,WUHU21623XXSP,2013-12-16 16:41:00,
2013-12-16 08:47:00,42.1,39.9,30.38,North,0,0.0,0.0,92,0.00,,,0.00,WUHU21623XXSP,2013-12-16 16:47:00,
2013-12-16 08:52:00,42.1,39.9,30.37,NNE,22,0.0,0.0,92,0.00,,,0.00,WUHU21623XXSP,2013-12-16 16:52:00,
2013-12-16 08:57:00,42.4,40.5,30.38,NNE,22,0.0,0.0,93,0.00,,,0.00,WUHU21623XXSP,2013-12-16 16:57:00,
2013-12-16 09:02:00,42.6,40.5,30.38,NNE,22,0.0,0.0,92,0.00,,,0.00,WUHU21623XXSP,2013-12-16 17:02:00,
2013-12-16 09:08:00,42.6,40.7,30.38,NNE,22,0.0,0.0,93,0.00,,,0.00,WUHU21623XXSP,2013-12-16 17:08:00,
2013-12-16 09:13:00,43.0,41.1,30.38,NNE,22,0.0,0.0,93,0.00,,,0.00,WUHU21623XXSP,2013-12-16 17:13:00,
2013-12-16 09:18:00,43.2,41.3,30.38,ENE,67,0.0,0.0,93,0.00,,,0.00,WUHU21623XXSP,2013-12-16 17:18:00,
2013-12-16 09:23:00,43.5,41.6,30.38,SE,135,0.0,0.0,93,0.00,,,0.00,WUHU21623XXSP,2013-12-16 17:23:00,
2013-12-16 09:28:00,43.5,41.6,30.38,SE,135,0.0,0.0,93,0.00,,,0.00,WUHU21623XXSP,2013-12-16 17:28:00,
2013-12-16 09:34:00,43.7,41.5,30.39,SE,135,0.0,0.0,92,0.00,,,0.00,WUHU21623XXSP,2013-12-16 17:34:00,
2013-12-16 09:39:00,43.9,41.7,30.39,SE,135,0.0,0.0,92,0.00,,,0.00,WUHU21623XXSP,2013-12-16 17:39:00,
2013-12-16 09:44:00,43.9,41.7,30.39,SE,135,0.0,0.0,92,0.00,,,0.00,WUHU21623XXSP,2013-12-16 17:44:00,
2013-12-16 09:49:00,43.9,41.7,30.39,SE,135,0.0,0.0,92,0.00,,,0.00,WUHU21623XXSP,2013-12-16 17:49:00,
2013-12-16 09:55:00,44.1,41.9,30.38,SE,135,0.0,0.0,92,0.00,,,0.00,WUHU21623XXSP,2013-12-16 17:55:00,
2013-12-16 10:00:00,44.2,42.1,30.38,SE,135,0.0,0.0,92,0.00,,,0.00,WUHU21623XXSP,2013-12-16 18:00:00,
2013-12-16 10:05:00,44.2,42.1,30.37,East,90,0.0,0.0,92,0.00,,,0.00,WUHU21623XXSP,2013-12-16 18:05:00,
2013-12-16 10:10:00,44.2,42.1,30.37,SE,135,0.0,0.0,92,0.00,,,0.00,WUHU21623XXSP,2013-12-16 18:10:00,
2013-12-16 10:16:00,44.2,42.1,30.38,SSE,157,0.0,0.0,92,0.00,,,0.00,WUHU21623XXSP,2013-12-16 18:16:00,
2013-12-16 10:21:00,44.2,42.1,30.37,ESE,112,0.0,0.0,92,0.00,,,0.00,WUHU21623XXSP,2013-12-16 18:21:00,
2013-12-16 10:26:00,44.2,42.1,30.37,ESE,112,0.0,0.0,92,0.00,,,0.00,WUHU21623XXSP,2013-12-16 18:26:00,
2013-12-16 10:31:00,44.2,42.1,30.37,ESE,112,0.0,0.0,92,0.00,,,0.00,WUHU21623XXSP,2013-12-16 18:31:00,
2013-12-16 10:36:00,44.2,42.1,30.37,ESE,112,0.0,0.0,92,0.00,,,0.00,WUHU21623XXSP,2013-12-16 18:36:00,
2013-12-16 10:42:00,44.4,42.3,30.37,ESE,112,0.0,0.0,92,0.00,,,0.00,WUHU21623XXSP,2013-12-16 18:42:00,
2013-12-16 10:47:00,44.4,42.3,30.38,ESE,112,0.0,0.0,92,0.00,,,0.00,WUHU21623XXSP,2013-12-16 18:47:00,
2013-12-16 10:52:00,44.4,42.3,30.37,ESE,112,0.0,0.0,92,0.00,,,0.00,WUHU21623XXSP,2013-12-16 18:52:00,
2013-12-16 10:57:00,44.6,42.4,30.37,ESE,112,0.0,0.0,92,0.00,,,0.00,WUHU21623XXSP,2013-12-16 18:57:00,
2013-12-16 11:03:00,45.0,42.8,30.37,ESE,112,0.0,0.0,92,0.00,,,0.00,WUHU21623XXSP,2013-12-16 19:03:00,
2013-12-16 11:08:00,45.1,43.0,30.37,ESE,112,0.0,0.0,92,0.00,,,0.00,WUHU21623XXSP,2013-12-16 19:08:00,
2013-12-16 11:13:00,45.1,43.0,30.36,ESE,112,0.0,0.0,92,0.00,,,0.00,WUHU21623XXSP,2013-12-16 19:13:00,
2013-12-16 11:18:00,45.3,43.2,30.37,ESE,112,0.0,0.0,92,0.00,,,0.00,WUHU21623XXSP,2013-12-16 19:18:00,
2013-12-16 11:24:00,45.3,43.2,30.36,ESE,112,0.0,0.0,92,0.00,,,0.00,WUHU21623XXSP,2013-12-16 19:24:00,
2013-12-16 11:29:00,45.5,43.3,30.36,ESE,112,0.0,0.0,92,0.00,,,0.00,WUHU21623XXSP,2013-12-16 19:29:00,
2013-12-16 11:34:00,45.7,43.5,30.35,ESE,112,0.0,0.0,92,0.00,,,0.00,WUHU21623XXSP,2013-12-16 19:34:00,
2013-12-16 11:39:00,46.0,43.9,30.34,ESE,112,0.0,0.0,92,0.00,,,0.00,WUHU21623XXSP,2013-12-16 19:39:00,
2013-12-16 11:45:00,46.0,43.9,30.34,ESE,112,0.0,0.0,92,0.00,,,0.00,WUHU21623XXSP,2013-12-16 19:45:00,
2013-12-16 11:50:00,46.0,43.9,30.34,ESE,112,0.0,0.0,92,0.00,,,0.00,WUHU21623XXSP,2013-12-16 19:50:00,
2013-12-16 11:55:00,46.0,43.6,30.34,ESE,112,0.0,0.0,91,0.00,,,0.00,WUHU21623XXSP,2013-12-16 19:55:00,
2013-12-16 12:00:00,46.0,43.6,30.34,ESE,112,0.0,0.0,91,0.00,,,0.00,WUHU21623XXSP,2013-12-16 20:00:00,
2013-12-16 12:05:00,45.7,43.3,30.33,East,90,0.0,0.0,91,0.00,,,0.00,WUHU21623XXSP,2013-12-16 20:05:00,
2013-12-16 12:11:00,45.5,43.1,30.33,East,90,0.0,0.0,91,0.00,,,0.00,WUHU21623XXSP,2013-12-16 20:11:00,
2013-12-16 12:16:00,45.3,42.9,30.33,NE,45,0.0,0.0,91,0.00,,,0.00,WUHU21623XXSP,2013-12-16 20:16:00,
2013-12-16 12:21:00,45.1,42.7,30.32,NE,45,0.0,0.0,91,0.00,,,0.00,WUHU21623XXSP,2013-12-16 20:21:00,
2013-12-16 12:26:00,45.1,42.7,30.33,NE,45,0.0,0.0,91,0.00,,,0.00,WUHU21623XXSP,2013-12-16 20:26:00,
2013-12-16 12:32:00,45.1,42.7,30.33,NE,45,0.0,0.0,91,0.00,,,0.00,WUHU21623XXSP,2013-12-16 20:32:00,
2013-12-16 12:37:00,45.1,42.7,30.34,NE,45,0.0,0.0,91,0.00,,,0.00,WUHU21623XXSP,2013-12-16 20:37:00,
2013-12-16 12:42:00,45.5,43.1,30.33,NE,45,0.0,0.0,91,0.00,,,0.00,WUHU21623XXSP,2013-12-16 20:42:00,
2013-12-16 12:47:00,45.7,43.3,30.33,NE,45,0.0,0.0,91,0.00,,,0.00,WUHU21623XXSP,2013-12-16 20:47:00,
2013-12-16 12:53:00,45.7,43.3,30.33,NE,45,0.0,0.0,91,0.00,,,0.00,WUHU21623XXSP,2013-12-16 20:53:00,
2013-12-16 12:58:00,45.7,43.3,30.32,NE,45,0.0,0.0,91,0.00,,,0.00,WUHU21623XXSP,2013-12-16 20:58:00,
2013-12-16 13:03:00,45.3,42.9,30.32,NE,45,0.0,0.0,91,0.00,,,0.00,WUHU21623XXSP,2013-12-16 21:03:00,
2013-12-16 13:08:00,45.1,42.7,30.32,North,0,0.0,0.0,91,0.00,,,0.00,WUHU21623XXSP,2013-12-16 21:08:00,
2013-12-16 13:13:00,45.1,42.7,30.32,North,0,0.0,0.0,91,0.00,,,0.00,WUHU21623XXSP,2013-12-16 21:13:00,
2013-12-16 13:19:00,45.1,42.7,30.32,North,0,0.0,0.0,91,0.00,,,0.00,WUHU21623XXSP,2013-12-16 21:19:00,
2013-12-16 13:24:00,45.1,42.7,30.32,North,0,0.0,0.0,91,0.00,,,0.00,WUHU21623XXSP,2013-12-16 21:24:00,
2013-12-16 13:29:00,45.1,42.7,30.31,North,0,0.0,0.0,91,0.00,,,0.00,WUHU21623XXSP,2013-12-16 21:29:00,
2013-12-16 13:34:00,45.3,42.9,30.31,North,0,0.0,0.0,91,0.00,,,0.00,WUHU21623XXSP,2013-12-16 21:34:00,
2013-12-16 13:40:00,45.3,42.9,30.31,North,0,0.0,0.0,91,0.00,,,0.00,WUHU21623XXSP,2013-12-16 21:40:00,
2013-12-16 13:45:00,45.3,42.9,30.30,North,0,0.0,0.0,91,0.00,,,0.00,WUHU21623XXSP,2013-12-16 21:45:00,
2013-12-16 13:50:00,45.5,43.1,30.30,ENE,67,0.0,0.0,91,0.00,,,0.00,WUHU21623XXSP,2013-12-16 21:50:00,
2013-12-16 13:55:00,45.7,43.3,30.30,East,90,0.0,0.0,91,0.00,,,0.00,WUHU21623XXSP,2013-12-16 21:55:00,
2013-12-16 14:01:00,45.7,43.3,30.30,East,90,0.0,0.0,91,0.00,,,0.00,WUHU21623XXSP,2013-12-16 22:01:00,
2013-12-16 14:06:00,46.0,43.6,30.30,East,90,0.0,0.0,91,0.00,,,0.00,WUHU21623XXSP,2013-12-16 22:06:00,
2013-12-16 14:11:00,46.0,43.6,30.30,SSE,157,0.0,0.0,91,0.00,,,0.00,WUHU21623XXSP,2013-12-16 22:11:00,
2013-12-16 14:16:00,46.2,43.8,30.30,SSE,157,0.0,0.0,91,0.00,,,0.00,WUHU21623XXSP,2013-12-16 22:16:00,
2013-12-16 14:21:00,46.2,43.8,30.30,SSE,157,0.0,0.0,91,0.00,,,0.00,WUHU21623XXSP,2013-12-16 22:21:00,
2013-12-16 14:27:00,46.2,43.8,30.30,SSE,157,0.0,0.0,91,0.00,,,0.00,WUHU21623XXSP,2013-12-16 22:27:00,
2013-12-16 14:32:00,46.2,43.5,30.30,SSE,157,0.0,0.0,90,0.00,,,0.00,WUHU21623XXSP,2013-12-16 22:32:00,
2013-12-16 14:37:00,46.2,43.5,30.29,SSE,157,0.0,0.0,90,0.00,,,0.00,WUHU21623XXSP,2013-12-16 22:37:00,
2013-12-16 14:42:00,46.2,43.5,30.29,SSE,157,0.0,0.0,90,0.00,,,0.00,WUHU21623XXSP,2013-12-16 22:42:00,
2013-12-16 14:48:00,46.2,43.5,30.29,SSE,157,0.0,0.0,90,0.00,,,0.00,WUHU21623XXSP,2013-12-16 22:48:00,
2013-12-16 14:53:00,46.0,43.3,30.29,SSE,157,0.0,0.0,90,0.00,,,0.00,WUHU21623XXSP,2013-12-16 22:53:00,
2013-12-16 14:58:00,46.0,43.3,30.29,SSE,157,0.0,0.0,90,0.00,,,0.00,WUHU21623XXSP,2013-12-16 22:58:00,
2013-12-16 15:03:00,46.0,43.3,30.29,SSE,157,0.0,0.0,90,0.00,,,0.00,WUHU21623XXSP,2013-12-16 23:03:00,
2013-12-16 15:09:00,45.7,43.0,30.29,SSE,157,0.0,0.0,90,0.00,,,0.00,WUHU21623XXSP,2013-12-16 23:09:00,
2013-12-16 15:14:00,45.7,43.0,30.29,SSE,157,0.0,0.0,90,0.00,,,0.00,WUHU21623XXSP,2013-12-16 23:14:00,
2013-12-16 15:19:00,45.7,43.0,30.29,SSE,157,0.0,0.0,90,0.00,,,0.00,WUHU21623XXSP,2013-12-16 23:19:00,
2013-12-16 15:24:00,45.7,43.0,30.29,SSE,157,0.0,0.0,90,0.00,,,0.00,WUHU21623XXSP,2013-12-16 23:24:00,
2013-12-16 15:29:00,45.5,42.8,30.29,SSE,157,0.0,0.0,90,0.00,,,0.00,WUHU21623XXSP,2013-12-16 23:29:00,
2013-12-16 15:35:00,45.5,42.8,30.28,SSE,157,0.0,0.0,90,0.00,,,0.00,WUHU21623XXSP,2013-12-16 23:35:00,
2013-12-16 15:40:00,45.5,42.8,30.28,East,90,0.0,0.0,90,0.00,,,0.00,WUHU21623XXSP,2013-12-16 23:40:00,
2013-12-16 15:45:00,45.3,42.6,30.28,ESE,112,0.0,0.0,90,0.00,,,0.00,WUHU21623XXSP,2013-12-16 23:45:00,
2013-12-16 15:50:00,45.1,42.4,30.28,ESE,112,0.0,0.0,90,0.00,,,0.00,WUHU21623XXSP,2013-12-16 23:50:00,
2013-12-16 15:56:00,45.1,42.4,30.28,SSE,157,0.0,0.0,90,0.00,,,0.00,WUHU21623XXSP,2013-12-16 23:56:00,
2013-12-16 16:01:00,45.1,42.4,30.27,SE,135,0.0,0.0,90,0.00,,,0.00,WUHU21623XXSP,2013-12-17 00:01:00,
2013-12-16 16:06:00,45.0,42.3,30.27,SE,135,0.0,0.0,90,0.00,,,0.00,WUHU21623XXSP,2013-12-17 00:06:00,
2013-12-16 16:11:00,44.8,42.1,30.27,SE,135,0.0,0.0,90,0.00,,,0.00,WUHU21623XXSP,2013-12-17 00:11:00,
2013-12-16 16:17:00,44.6,41.9,30.27,SE,135,0.0,0.0,90,0.00,,,0.00,WUHU21623XXSP,2013-12-17 00:17:00,
2013-12-16 16:22:00,44.4,41.7,30.27,SE,135,0.0,0.0,90,0.00,,,0.00,WUHU21623XXSP,2013-12-17 00:22:00,
2013-12-16 16:27:00,44.2,41.5,30.27,SE,135,0.0,0.0,90,0.00,,,0.00,WUHU21623XXSP,2013-12-17 00:27:00,
2013-12-16 16:32:00,44.2,41.5,30.27,SE,135,0.0,0.0,90,0.00,,,0.00,WUHU21623XXSP,2013-12-17 00:32:00,
2013-12-16 16:37:00,43.9,41.2,30.27,SE,135,0.0,0.0,90,0.00,,,0.00,WUHU21623XXSP,2013-12-17 00:37:00,
2013-12-16 16:43:00,43.9,41.2,30.26,SE,135,0.0,0.0,90,0.00,,,0.00,WUHU21623XXSP,2013-12-17 00:43:00,
2013-12-16 16:48:00,43.7,41.0,30.26,SE,135,0.0,0.0,90,0.00,,,0.00,WUHU21623XXSP,2013-12-17 00:48:00,
2013-12-16 16:53:00,43.7,41.0,30.26,SE,135,0.0,0.0,90,0.00,,,0.00,WUHU21623XXSP,2013-12-17 00:53:00,
2013-12-16 16:58:00,43.5,41.1,30.25,SE,135,0.0,0.0,91,0.00,,,0.00,WUHU21623XXSP,2013-12-17 00:58:00,
2013-12-16 17:04:00,43.5,41.1,30.25,SE,135,0.0,0.0,91,0.00,,,0.00,WUHU21623XXSP,2013-12-17 01:04:00,
2013-12-16 17:09:00,43.5,41.1,30.25,SE,135,0.0,0.0,91,0.00,,,0.00,WUHU21623XXSP,2013-12-17 01:09:00,
2013-12-16 17:14:00,43.5,41.1,30.25,ESE,112,0.0,0.0,91,0.00,,,0.00,WUHU21623XXSP,2013-12-17 01:14:00,
2013-12-16 17:19:00,43.5,41.1,30.25,SE,135,0.0,0.0,91,0.00,,,0.00,WUHU21623XXSP,2013-12-17 01:19:00,
2013-12-16 17:25:00,43.5,41.1,30.24,SSE,157,0.0,0.0,91,0.00,,,0.00,WUHU21623XXSP,2013-12-17 01:25:00,
2013-12-16 17:30:00,43.5,41.1,30.24,SSE,157,0.0,0.0,91,0.00,,,0.00,WUHU21623XXSP,2013-12-17 01:30:00,
2013-12-16 17:35:00,43.5,41.1,30.24,SSE,157,0.0,0.0,91,0.00,,,0.00,WUHU21623XXSP,2013-12-17 01:35:00,
2013-12-16 17:40:00,43.5,41.1,30.24,SSE,157,0.0,0.0,91,0.00,,,0.00,WUHU21623XXSP,2013-12-17 01:40:00,
2013-12-16 17:45:00,43.5,41.1,30.24,SSE,157,0.0,0.0,91,0.00,,,0.00,WUHU21623XXSP,2013-12-17 01:45:00,
2013-12-16 17:51:00,43.5,41.1,30.24,SSE,157,0.0,0.0,91,0.00,,,0.00,WUHU21623XXSP,2013-12-17 01:51:00,
2013-12-16 17:56:00,43.5,41.1,30.25,SSE,157,0.0,0.0,91,0.00,,,0.00,WUHU21623XXSP,2013-12-17 01:56:00,
2013-12-16 18:01:00,43.3,40.9,30.25,SSE,157,0.0,0.0,91,0.00,,,0.00,WUHU21623XXSP,2013-12-17 02:01:00,
2013-12-16 18:06:00,43.3,40.9,30.24,SSE,157,0.0,0.0,91,0.00,,,0.00,WUHU21623XXSP,2013-12-17 02:06:00,
2013-12-16 18:12:00,43.3,40.9,30.24,SSE,157,0.0,0.0,91,0.00,,,0.00,WUHU21623XXSP,2013-12-17 02:12:00,
2013-12-16 18:17:00,43.3,40.9,30.24,SSE,157,0.0,0.0,91,0.00,,,0.00,WUHU21623XXSP,2013-12-17 02:17:00,
2013-12-16 18:22:00,43.2,40.7,30.24,SSE,157,0.0,0.0,91,0.00,,,0.00,WUHU21623XXSP,2013-12-17 02:22:00,
2013-12-16 18:27:00,43.2,40.7,30.24,SSE,157,0.0,0.0,91,0.00,,,0.00,WUHU21623XXSP,2013-12-17 02:27:00,
2013-12-16 18:33:00,43.0,40.5,30.23,SE,135,0.0,0.0,91,0.00,,,0.00,WUHU21623XXSP,2013-12-17 02:33:00,
2013-12-16 18:38:00,43.0,40.5,30.23,SE,135,0.0,0.0,91,0.00,,,0.00,WUHU21623XXSP,2013-12-17 02:38:00,
2013-12-16 18:43:00,42.6,40.2,30.22,SE,135,0.0,0.0,91,0.00,,,0.00,WUHU21623XXSP,2013-12-17 02:43:00,
2013-12-16 18:48:00,42.4,40.0,30.22,SE,135,0.0,0.0,91,0.00,,,0.00,WUHU21623XXSP,2013-12-17 02:48:00,
2013-12-16 18:53:00,42.4,40.0,30.23,SE,135,0.0,0.0,91,0.00,,,0.00,WUHU21623XXSP,2013-12-17 02:53:00,
2013-12-16 18:59:00,42.4,40.0,30.23,SE,135,0.0,0.0,91,0.00,,,0.00,WUHU21623XXSP,2013-12-17 02:59:00,
2013-12-16 19:04:00,42.4,40.0,30.22,SE,135,0.0,0.0,91,0.00,,,0.00,WUHU21623XXSP,2013-12-17 03:04:00,
2013-12-16 19:09:00,42.3,39.8,30.22,SE,135,0.0,0.0,91,0.00,,,0.00,WUHU21623XXSP,2013-12-17 03:09:00,
2013-12-16 19:14:00,42.1,39.9,30.22,SE,135,0.0,0.0,92,0.00,,,0.00,WUHU21623XXSP,2013-12-17 03:14:00,
2013-12-16 19:20:00,42.1,39.9,30.22,SSE,157,0.0,0.0,92,0.00,,,0.00,WUHU21623XXSP,2013-12-17 03:20:00,
2013-12-16 19:25:00,42.3,40.1,30.22,SSE,157,0.0,0.0,92,0.00,,,0.00,WUHU21623XXSP,2013-12-17 03:25:00,
2013-12-16 19:30:00,42.4,40.3,30.21,SSE,157,0.0,0.0,92,0.00,,,0.00,WUHU21623XXSP,2013-12-17 03:30:00,
2013-12-16 19:35:00,42.4,40.3,30.21,South,180,0.0,0.0,92,0.00,,,0.00,WUHU21623XXSP,2013-12-17 03:35:00,
2013-12-16 19:41:00,42.4,40.3,30.20,SE,135,2.2,2.2,92,0.00,,,0.00,WUHU21623XXSP,2013-12-17 03:41:00,
2013-12-16 19:46:00,42.1,39.6,30.21,SE,135,0.0,2.2,91,0.00,,,0.00,WUHU21623XXSP,2013-12-17 03:46:00,
2013-12-16 19:51:00,42.1,39.6,30.20,SSW,202,0.0,0.0,91,0.00,,,0.00,WUHU21623XXSP,2013-12-17 03:51:00,
2013-12-16 19:56:00,42.1,39.6,30.20,SSW,202,0.0,0.0,91,0.00,,,0.00,WUHU21623XXSP,2013-12-17 03:56:00,
2013-12-16 20:02:00,41.9,39.5,30.19,SSE,157,0.0,0.0,91,0.00,,,0.00,WUHU21623XXSP,2013-12-17 04:02:00,
2013-12-16 20:07:00,41.7,39.3,30.19,SSE,157,0.0,0.0,91,0.00,,,0.00,WUHU21623XXSP,2013-12-17 04:07:00,
2013-12-16 20:12:00,41.7,39.3,30.18,SSE,157,0.0,0.0,91,0.00,,,0.00,WUHU21623XXSP,2013-12-17 04:12:00,
2013-12-16 20:17:00,41.5,39.1,30.18,SSE,157,0.0,0.0,91,0.00,,,0.00,WUHU21623XXSP,2013-12-17 04:17:00,
2013-12-16 20:22:00,41.5,39.1,30.18,SSE,157,0.0,0.0,91,0.00,,,0.00,WUHU21623XXSP,2013-12-17 04:22:00,
2013-12-16 20:28:00,41.5,39.1,30.18,SSE,157,0.0,0.0,91,0.00,,,0.00,WUHU21623XXSP,2013-12-17 04:28:00,
2013-12-16 20:33:00,41.5,39.1,30.18,SSE,157,0.0,0.0,91,0.00,,,0.00,WUHU21623XXSP,2013-12-17 04:33:00,
2013-12-16 20:38:00,41.5,39.1,30.18,SSE,157,0.0,0.0,91,0.00,,,0.00,WUHU21623XXSP,2013-12-17 04:38:00,
2013-12-16 20:43:00,41.4,38.9,30.18,SSE,157,0.0,0.0,91,0.00,,,0.00,WUHU21623XXSP,2013-12-17 04:43:00,
2013-12-16 20:49:00,41.4,38.9,30.18,SSE,157,0.0,0.0,91,0.00,,,0.00,WUHU21623XXSP,2013-12-17 04:49:00,
2013-12-16 20:54:00,41.2,38.8,30.18,SSE,157,0.0,0.0,91,0.00,,,0.00,WUHU21623XXSP,2013-12-17 04:54:00,
2013-12-16 20:59:00,41.2,38.8,30.17,SSE,157,0.0,0.0,91,0.00,,,0.00,WUHU21623XXSP,2013-12-17 04:59:00,
2013-12-16 21:04:00,41.2,38.8,30.17,SSE,157,0.0,0.0,91,0.00,,,0.00,WUHU21623XXSP,2013-12-17 05:04:00,
2013-12-16 21:10:00,41.2,38.8,30.17,SSE,157,0.0,0.0,91,0.00,,,0.00,WUHU21623XXSP,2013-12-17 05:10:00,
2013-12-16 21:15:00,41.2,38.8,30.17,SSE,157,0.0,0.0,91,0.00,,,0.00,WUHU21623XXSP,2013-12-17 05:15:00,
2013-12-16 21:20:00,41.2,38.8,30.18,SSE,157,0.0,0.0,91,0.00,,,0.00,WUHU21623XXSP,2013-12-17 05:20:00,
2013-12-16 21:25:00,41.2,39.0,30.17,SSE,157,0.0,0.0,92,0.00,,,0.00,WUHU21623XXSP,2013-12-17 05:25:00,
2013-12-16 21:30:00,41.5,39.1,30.17,SSE,157,0.0,0.0,91,0.00,,,0.00,WUHU21623XXSP,2013-12-17 05:30:00,
2013-12-16 21:36:00,41.5,39.1,30.17,SSE,157,0.0,0.0,91,0.00,,,0.00,WUHU21623XXSP,2013-12-17 05:36:00,
2013-12-16 21:41:00,41.4,38.9,30.17,South,180,0.0,0.0,91,0.00,,,0.00,WUHU21623XXSP,2013-12-17 05:41:00,
2013-12-16 21:46:00,41.4,38.9,30.17,South,180,0.0,0.0,91,0.00,,,0.00,WUHU21623XXSP,2013-12-17 05:46:00,
2013-12-16 21:51:00,41.4,38.9,30.16,South,180,0.0,0.0,91,0.00,,,0.00,WUHU21623XXSP,2013-12-17 05:51:00,
2013-12-16 21:57:00,41.2,38.8,30.16,South,180,0.0,0.0,91,0.00,,,0.00,WUHU21623XXSP,2013-12-17 05:57:00,
2013-12-16 22:02:00,41.2,38.8,30.16,South,180,0.0,0.0,91,0.00,,,0.00,WUHU21623XXSP,2013-12-17 06:02:00,
2013-12-16 22:07:00,41.2,38.8,30.16,South,180,0.0,0.0,91,0.00,,,0.00,WUHU21623XXSP,2013-12-17 06:07:00,
2013-12-16 22:12:00,41.2,38.8,30.16,South,180,0.0,0.0,91,0.00,,,0.00,WUHU21623XXSP,2013-12-17 06:12:00,
2013-12-16 22:18:00,41.0,38.6,30.16,South,180,0.0,0.0,91,0.00,,,0.00,WUHU21623XXSP,2013-12-17 06:18:00,
2013-12-16 22:23:00,40.8,38.4,30.16,SSE,157,0.0,0.0,91,0.00,,,0.00,WUHU21623XXSP,2013-12-17 06:23:00,
2013-12-16 22:28:00,40.6,38.2,30.16,SSE,157,0.0,0.0,91,0.00,,,0.00,WUHU21623XXSP,2013-12-17 06:28:00,
2013-12-16 22:33:00,40.3,37.9,30.15,SSE,157,0.0,0.0,91,0.00,,,0.00,WUHU21623XXSP,2013-12-17 06:33:00,
2013-12-16 22:38:00,40.3,37.9,30.16,SSE,157,0.0,0.0,91,0.00,,,0.00,WUHU21623XXSP,2013-12-17 06:38:00,
2013-12-16 22:44:00,40.3,38.1,30.16,SSE,157,0.0,0.0,92,0.00,,,0.00,WUHU21623XXSP,2013-12-17 06:44:00,
2013-12-16 22:49:00,40.5,38.3,30.16,SSE,157,0.0,0.0,92,0.00,,,0.00,WUHU21623XXSP,2013-12-17 06:49:00,
2013-12-16 22:54:00,40.6,38.5,30.15,SSE,157,0.0,0.0,92,0.00,,,0.00,WUHU21623XXSP,2013-12-17 06:54:00,
2013-12-16 22:59:00,40.6,38.5,30.15,SSE,157,0.0,0.0,92,0.00,,,0.00,WUHU21623XXSP,2013-12-17 06:59:00,
2013-12-16 23:05:00,40.6,38.5,30.15,SSE,157,0.0,0.0,92,0.00,,,0.00,WUHU21623XXSP,2013-12-17 07:05:00,
2013-12-16 23:10:00,40.6,38.2,30.15,SSE,157,0.0,0.0,91,0.00,,,0.00,WUHU21623XXSP,2013-12-17 07:10:00,
2013-12-16 23:15:00,40.3,37.9,30.15,SSE,157,0.0,0.0,91,0.00,,,0.00,WUHU21623XXSP,2013-12-17 07:15:00,
2013-12-16 23:20:00,40.3,38.1,30.15,SSE,157,0.0,0.0,92,0.00,,,0.00,WUHU21623XXSP,2013-12-17 07:20:00,
2013-12-16 23:26:00,40.1,37.9,30.15,SSE,157,0.0,0.0,92,0.00,,,0.00,WUHU21623XXSP,2013-12-17 07:26:00,
2013-12-16 23:31:00,39.9,37.8,30.15,SSE,157,0.0,0.0,92,0.00,,,0.00,WUHU21623XXSP,2013-12-17 07:31:00,
2013-12-16 23:36:00,39.7,37.6,30.15,SSE,157,0.0,0.0,92,0.00,,,0.00,WUHU21623XXSP,2013-12-17 07:36:00,
2013-12-16 23:41:00,39.7,37.6,30.14,SSE,157,0.0,0.0,92,0.00,,,0.00,WUHU21623XXSP,2013-12-17 07:41:00,
2013-12-16 23:46:00,39.7,37.6,30.14,SSE,157,0.0,0.0,92,0.00,,,0.00,WUHU21623XXSP,2013-12-17 07:46:00,
2013-12-16 23:52:00,39.9,37.8,30.14,SSE,157,0.0,0.0,92,0.00,,,0.00,WUHU21623XXSP,2013-12-17 07:52:00,
2013-12-16 23:57:00,39.9,37.8,30.14,SSE,157,0.0,0.0,92,0.00,,,0.00,WUHU21623XXSP,2013-12-17 07:57:00,